Regional Weather Roundup
Issued by NWS

Home | Current Version | Previous Version | Graphics & Text | Print | Product List | Glossary On
Versions: 1 2 3 4 5 6 7 8 9 10 11 12 13 14 15 16 17 18 19 20 21 22 23 24 25 26 27 28 29 30 31 32 33 34 35 36 37 38 39 40 41 42 43 44 45 46 47 48 49 50
000
ASUS45 KBOU 250607
RWRCO

WEATHER ROUNDUP FOR COLORADO
NATIONAL WEATHER SERVICE DENVER/BOULDER CO
1100 PM MST FRI FEB 24 2017

NOTE: "FAIR" INDICATES FEW OR NO CLOUDS BELOW 12000 FEET WITH NO
SIGNIFICANT WEATHER AND/OR OBSTRUCTIONS TO VISIBILITY.

COZ001>005-013-030-031-250700-
...NORTHWEST COLORADO...

CITY           SKY/WX    TMP DP  RH WIND       PRES   REMARKS
CRAIG          CLOUDY    10   5  80 SE5       30.07S WCI   2
HAYDEN         FAIR       7   3  85 NE3       30.04S
MEEKER         CLOUDY    18  15  88 CALM      30.05S
MOUNT WERNER   NOT AVBL
STEAMBOAT SPGS CLOUDY     7   3  86 CALM      30.02S
WALDEN         NOT AVBL
$$

COZ006>008-011-250700-
...WEST CENTRAL VALLEYS...

CITY           SKY/WX    TMP DP  RH WIND       PRES   REMARKS
GRAND JUNCTION FAIR      19  16  88 NE3       30.10R
MONTROSE       FAIR      17  11  77 SE6       30.12R WCI   9
EAGLE          CLOUDY    18  14  84 E5        30.05R WCI  11
RIFLE          FAIR      19  16  88 S5        30.08S WCI  12
DELTA          FAIR      22  15  75 N3        30.10S
NUCLA          MOCLDY    21  10  63 E9        30.11S WCI  11
$$

COZ017>023-064>068-250700-
...SOUTHWEST COLORADO...

CITY           SKY/WX    TMP DP  RH WIND       PRES   REMARKS
DURANGO        FAIR      21   8  57 N5        30.03S WCI  15
CORTEZ         FAIR      19  15  84 NE5       30.07F WCI  12
PAGOSA SPRINGS FAIR      17   1  48 W6        30.01S WCI   8
TELLURIDE      MOCLDY    10   5  82 CALM      30.00S
WOLF CREEK PAS FOG        0  -4  85 SW12      29.90F VSB 3/4 WCI -18
$$

COZ009-010-012-014-032>034-037-058>063-250700-
...CENTRAL COLORADO...

CITY           SKY/WX    TMP DP  RH WIND       PRES   REMARKS
ASPEN          CLOUDY    13   9  84 CALM      29.97R
BUENA VISTA    FAIR      15   7  70 NW6       29.96R WCI   6
COPPER MTN     CLOUDY     1  -6  71 MISG      29.78F HAZE
BERTHOUD PASS  LGT SNOW  -8 -17  65 NW16      29.73F WCI -30
COTTONWOOD PAS MOCLDY    12  -4  48 W6        29.89S WCI   3
GUNNISON       LGT SNOW  12   8  84 CALM      30.01S FOG
KREMMLING      MOCLDY    19   9  63 CALM      30.00S
LEADVILLE      MOCLDY     2  -5  72 NW6       29.87S WCI  -9
MONARCH PASS   CLOUDY     1  -4  78 W29       29.91S WCI -24
SALIDA         FAIR      20   3  49 W9        30.05S WCI   9
SUNLIGHT       NOT AVBL
WILKERSON PASS CLOUDY     3   0  85 W5        29.84S WCI  -6
$$

COZ069>075-250700-
...SAN LUIS VALLEY/SANGRE DE CRISTO MOUNTAINS...

CITY           SKY/WX    TMP DP  RH WIND       PRES   REMARKS
ALAMOSA        FAIR      16  11  80 CALM      29.98S
LA VETA PASS   FLURRIES  10   5  79 SW7G21    29.89S WCI   0
SAGUACHE       FAIR      14   9  79 NW9       29.98F WCI   2
$$

COZ035-036-038>040-250700-
...NORTHERN COLORADO FRONT RANGE...

CITY           SKY/WX    TMP DP  RH WIND       PRES   REMARKS
DENVER INTL AP MOCLDY    18  14  84 S8        30.01F WCI   8
DMNS CITY PARK   N/A     22  13  68 SW3       30.01F
AURORA         MOCLDY    18  14  85 S5        30.01F WCI  11
FRONT RANGE AP MOCLDY    21  18  86 S6        30.02F WCI  14
ERIE MUNI ARPT FAIR      19  17  93 CALM      30.03S
BOULDER MUN AP FAIR      18  14  86 CALM      30.02F
CENTENNIAL     MOCLDY    16  11  80 S6        30.00F WCI   7
BROOMFIELD     FAIR      19  16  86 CALM      30.01S
FORT COLLINS   FAIR      18  15  88 N3        30.04F
LONGMONT       FAIR      15   9  76 W6        30.05F WCI   6
$$

COZ041-046-047-076>085-087-088-250700-
...PIKES PEAK/PALMER DIVIDE AND SOUTHERN FOOTHILLS...

CITY           SKY/WX    TMP DP  RH WIND       PRES   REMARKS
COLO. SPRINGS  FAIR      16  10  77 E5        30.03S WCI   9
A. F. ACADEMY  CLOUDY    16  12  86 SE7       29.99S WCI   6
SCHRIEVER AFB  FAIR      14  10  85 S7        30.03  WCI   4
ELLICOTT       FAIR     N/A N/A N/A E6          N/A
FALCON         LGT SNOW  13  11  95 CALM      30.00S
FORT CARSON    CLOUDY    19  10  66 S9        30.03S WCI   8
LIMON          FAIR      15  12  88 CALM      30.04F
MONUMENT HILL  LGT SNOW  18  14  86 SW12      29.98S WCI   5
TRINIDAD       FAIR      14   6  70 NW6       30.04S WCI   5
$$

COZ042>045-048>051-090-091-250700-
...NORTHEAST COLORADO...

CITY           SKY/WX    TMP DP  RH WIND       PRES   REMARKS
GREELEY ARPT   FAIR      16  13  88 SW3       30.06F
AKRON          FAIR      12   7  80 SW5       30.05F WCI   4
BURLINGTON     FAIR      12   7  80 S3        30.09F
WRAY           NOT AVBL
STERLING       FAIR       9   7  92 CALM      30.07S
HOLYOKE        FAIR      14  10  85 W5        30.11R WCI   6
FORT MORGAN    FAIR      19  15  87 S3        30.06F
$$

COZ086-089-092>099-250700-
...SOUTHEAST COLORADO...

CITY           SKY/WX    TMP DP  RH WIND       PRES   REMARKS
PUEBLO         MOCLDY    22   9  57 E6        30.09R WCI  14
LA JUNTA       MOCLDY    25  13  60 SE7       30.11S WCI  17
LAMAR          MOCLDY    24  13  62 E3        30.12R
SPRINGFIELD      N/A     16  11  80 CALM      30.10R
$$



USA.gov is the U.S. government's official web portal to all federal, state and local government web resources and services.